Home > Weather > Liestal > Past weeks

Flag for Switzerland Past Weather in Liestal, Basel-Land, Switzerland — Yesterday and Last 2 Weeks

Now
50 °F

Mostly cloudy.


Feels Like: 49 °F
Forecast: 48 / 75 °F
Wind: 3 mph from North

Location: Bale-Mulhouse

Current Time: May 25, 2016 at 3:41:43 AM

Latest Report: May 25, 2016 at 3:00 AM


Visibility: 4 mi

Pressure: 29.95 "Hg

Humidity: 100%

Dew Point: 50 °F

Location of LiestalLocation

Past Weather in Liestal — Graph

°F

Liestal Temperature Yesterday

Maximum temperature yesterday: 57 °F (at 12:30 PM)
Minimum temperature yesterday: 50 °F (at 2:30 AM)
Average temperature yesterday: 53 °F

High & Low Weather Summary for the Past Weeks

 TemperatureHumidityPressure
High77 °F (May 21, 3:30 PM)100% (May 10, 5:30 AM)30.21 "Hg (May 10, 5:30 AM)
Low41 °F (May 16, 1:30 AM)38% (May 18, 3:30 PM)29.50 "Hg (May 12, 1:30 PM)
Average56 °F78%29.91 "Hg
* Reported May 10 2:00 AM — May 25 2:30 AM, Liestal, Weather by CustomWeather, © 2016

Note: Actual official high and low records may vary slightly from our data, if they occured in-between our weather recording intervals... More about our weather records

Advertising

Liestal Weather History for the Previous 24 Hours

Scroll right to see more
 ConditionsComfort  
Time TempWeatherWind HumidityBarometerVisibility
2:30 AM
Wed, May 25
52 °FOvercast.3 mph94%29.95 "Hg4 mi
2:00 AM52 °FOvercast.3 mph94%29.98 "Hg5 mi
1:30 AM52 °FMostly cloudy.5 mph94%29.98 "HgN/A
1:00 AM52 °FMostly cloudy.8 mph94%29.95 "HgN/A
12:30 AM52 °FMostly cloudy.5 mph94%29.98 "HgN/A
12:00 AM52 °FPartly cloudy.6 mph88%29.98 "HgN/A
11:30 PM
Tue, May 24
52 °FPassing clouds.6 mph88%29.98 "HgN/A
11:00 PM52 °FPassing clouds.7 mph88%29.98 "HgN/A
10:30 PM52 °FPassing clouds.5 mph94%29.98 "HgN/A
10:00 PM54 °FPartly sunny.5 mph88%29.98 "HgN/A
9:30 PM54 °FPartly sunny.3 mph88%29.98 "HgN/A
9:00 PM52 °FPartly sunny.3 mph94%29.98 "HgN/A
8:30 PM54 °FScattered clouds.5 mph88%29.98 "HgN/A
8:00 PM55 °FScattered clouds.2 mph77%29.98 "HgN/A
7:30 PM57 °FPartly sunny.2 mph72%29.98 "HgN/A
7:00 PM57 °FPartly sunny.3 mph72%29.98 "HgN/A
6:30 PM57 °FPartly sunny.5 mph72%29.98 "HgN/A
6:00 PM57 °FBroken clouds.3 mph72%29.98 "HgN/A
5:30 PM57 °FBroken clouds.3 mph72%29.98 "HgN/A
5:00 PM57 °FPartly sunny.5 mph72%29.98 "HgN/A
4:30 PM57 °FPartly sunny.3 mph72%30.01 "HgN/A
4:00 PM57 °FScattered showers. Partly sunny.5 mph77%30.01 "HgN/A
3:30 PM55 °FScattered showers. Partly sunny.6 mph77%30.01 "HgN/A
3:00 PM55 °FScattered showers. Partly sunny.5 mph77%30.01 "HgN/A
2:30 PM55 °FScattered showers. Broken clouds.5 mph77%30.01 "HgN/A
2:00 PM55 °FScattered showers. Broken clouds.2 mph77%30.01 "HgN/A
1:30 PM55 °FScattered showers. Broken clouds.3 mph77%30.01 "HgN/A
1:00 PM57 °FScattered showers. Broken clouds.3 mph67%30.01 "HgN/A
12:30 PM57 °FBroken clouds.5 mph72%30.01 "HgN/A
12:00 PM55 °FPartly sunny.5 mph77%30.01 "HgN/A
11:30 AM55 °FPartly sunny.8 mph77%30.01 "HgN/A
11:00 AM55 °FPartly sunny.9 mph77%30.01 "HgN/A
10:30 AM55 °FPartly sunny.8 mph77%30.01 "HgN/A
10:00 AM54 °FBroken clouds.8 mph82%30.01 "HgN/A
9:30 AM54 °FPartly sunny.7 mph77%30.04 "HgN/A
9:00 AM54 °FPartly sunny.8 mph82%30.01 "HgN/A
8:30 AM52 °FPartly sunny.8 mph88%30.01 "HgN/A
8:00 AM50 °FPartly sunny.7 mph88%30.04 "HgN/A
7:30 AM50 °FPartly sunny.8 mph88%30.04 "HgN/A
7:00 AM50 °FBroken clouds.10 mph88%30.04 "HgN/A
6:30 AM50 °FPassing clouds.9 mph88%30.04 "HgN/A
6:00 AM50 °FMostly cloudy.8 mph88%30.04 "HgN/A
5:30 AM50 °FMostly cloudy.7 mph88%30.01 "HgN/A
5:00 AM50 °FMostly cloudy.8 mph94%30.01 "HgN/A
4:30 AM50 °FMostly cloudy.8 mph94%30.01 "HgN/A
4:00 AM50 °FMostly cloudy.8 mph94%30.01 "HgN/A
3:30 AM50 °FMostly cloudy.7 mph94%30.01 "HgN/A
3:00 AM50 °FPassing clouds.8 mph94%30.01 "HgN/A
Weather by CustomWeather, © 2016

See weather overviewHow to use our weather pages